Home > Weather > Gdynia > Past weeks

Flag for Poland Past Weather in Gdynia, Poland — Yesterday and Last 2 Weeks

Now
73 °F

Scattered clouds.


Feels Like: 76 °F
Forecast: 61 / 71 °F
Wind: 12 mph from Southwest

Location: Gdansk-Rebiechowo

Current Time: Jul 30, 2016 at 1:18:43 PM

Latest Report: Jul 30, 2016 at 1:00 PM


Visibility: N/A

Pressure: 29.80 "Hg

Humidity: 61%

Dew Point: 59 °F

Location of GdyniaLocation

Past Weather in Gdynia — Graph

°F

Gdynia Temperature Yesterday

Maximum temperature yesterday: 77 °F (at 12:30 PM)
Minimum temperature yesterday: 61 °F (at 2:30 AM)
Average temperature yesterday: 66 °F

High & Low Weather Summary for the Past Weeks

 TemperatureHumidityPressure
High81 °F (Jul 26, 1:00 PM)100% (Jul 16, 11:30 PM)30.18 "Hg (Jul 16, 11:30 PM)
Low50 °F (Jul 21, 5:00 AM)37% (Jul 26, 12:30 PM)29.83 "Hg (Jul 29, 12:30 PM)
Average64 °F81%30.03 "Hg
* Reported Jul 15 12:00 PM — Jul 30 12:00 PM, Gdynia, Weather by CustomWeather, © 2016

Note: Actual official high and low records may vary slightly from our data, if they occured in-between our weather recording intervals... More about our weather records

Advertising

Gdynia Weather History for the Previous 24 Hours

Scroll right to see more
 ConditionsComfort  
Time TempWeatherWind HumidityBarometerVisibility
12:00 PM
Sat, Jul 30
73 °FPassing clouds.6 mph65%29.83 "HgN/A
11:30 AM70 °FPassing clouds.5 mph73%29.83 "HgN/A
11:00 AM68 °FSunny.3 mph78%29.83 "Hg10 mi
10:30 AM70 °FPassing clouds.5 mph69%29.83 "HgN/A
10:00 AM70 °FPassing clouds.8 mph64%29.83 "HgN/A
9:30 AM70 °FPassing clouds.6 mph73%29.83 "HgN/A
9:00 AM70 °FPassing clouds.3 mph73%29.83 "HgN/A
8:30 AM68 °FPassing clouds.5 mph78%29.83 "HgN/A
8:00 AM66 °FPassing clouds.5 mph83%29.83 "HgN/A
7:30 AM64 °FSunny.2 mph88%29.83 "Hg10 mi
7:00 AM63 °FSunny.2 mph88%29.83 "Hg10 mi
6:30 AM63 °FSunny.2 mph88%29.83 "Hg10 mi
6:00 AM61 °FSunny.2 mph94%29.83 "Hg10 mi
5:30 AM61 °FClear.2 mph94%29.83 "Hg10 mi
5:00 AM61 °FClear.5 mph94%29.83 "Hg10 mi
4:30 AM63 °FClear.6 mph88%29.83 "Hg10 mi
4:00 AM63 °FPassing clouds.3 mph94%29.83 "HgN/A
3:30 AM61 °FPassing clouds.3 mph94%29.83 "HgN/A
3:00 AM61 °FClear.3 mph94%29.83 "Hg10 mi
2:30 AM61 °FClear.3 mph94%29.83 "Hg10 mi
2:00 AM59 °FClear.2 mph94%29.83 "Hg10 mi
1:30 AM61 °FClear.5 mph94%29.83 "Hg10 mi
1:00 AM61 °FClear.5 mph94%29.83 "Hg10 mi
12:30 AM61 °FClear.1 mph100%29.83 "Hg5 mi
12:00 AM61 °FClear.2 mph100%29.83 "Hg4 mi
11:30 PM
Fri, Jul 29
61 °FClear.1 mph100%29.83 "Hg10 mi
11:00 PM63 °FClear.2 mph94%29.83 "Hg10 mi
10:30 PM63 °FPassing clouds.2 mph94%29.83 "HgN/A
10:00 PM63 °FPassing clouds.3 mph100%29.83 "HgN/A
9:30 PM63 °FPartly sunny.2 mph100%29.86 "HgN/A
9:00 PM64 °FThunderstorms. Broken clouds.6 mph94%29.86 "Hg5 mi
8:30 PM66 °FScattered clouds.7 mph88%29.83 "HgN/A
8:00 PM66 °FPartly sunny.7 mph83%29.83 "HgN/A
7:30 PM68 °FPartly sunny.7 mph78%29.83 "HgN/A
7:00 PM68 °FScattered clouds.6 mph78%29.83 "HgN/A
6:30 PM70 °FPassing clouds.3 mph73%29.83 "HgN/A
6:00 PM70 °FPassing clouds.2 mph69%29.83 "HgN/A
5:30 PM70 °FSunny.1 mph69%29.83 "Hg10 mi
5:00 PM70 °FPassing clouds.5 mph69%29.83 "HgN/A
4:30 PM70 °FScattered clouds.5 mph73%29.83 "HgN/A
4:00 PM68 °FPartly sunny.3 mph78%29.86 "HgN/A
3:30 PM68 °FPassing clouds.6 mph78%29.83 "HgN/A
3:00 PM66 °FSprinkles. Passing clouds.8 mph83%29.83 "HgN/A
2:30 PM66 °FSprinkles. Passing clouds.14 mph83%29.86 "HgN/A
2:00 PM66 °FThundershowers. Partly sunny.13 mph78%29.86 "HgN/A
1:30 PM75 °FThundershowers. Partly sunny.6 mph57%29.83 "HgN/A
1:00 PM75 °FScattered clouds.8 mph57%29.83 "HgN/A
Weather by CustomWeather, © 2016

See weather overviewHow to use our weather pages